Weather History for Greensboro, GA

Change the Weather History Date:

Monday, November 26, 2012

  Actual Average (KDBN) Record (KDBN)
Temperature  
Mean Temperature 50 °F -  
Max Temperature 69 °F 67 °F 81 °F (1946)
Min Temperature 32 °F 38 °F 18 °F (1970)
Degree Days  
Heating Degree Days 14    
Moisture  
Dew Point 25 °F    
Average Humidity 38    
Maximum Humidity 87    
Minimum Humidity 16    
Precipitation  
Precipitation 0.00 in - - ()
Sea Level Pressure  
Sea Level Pressure 30.14 in    
Wind  
Wind Speed 1 mph (SW)    
Max Wind Speed 7 mph    
Max Gust Speed -    
Visibility 10 miles    
Events      
Averages and records for this station are not official NWS values.
T = Trace of Precipitation, MM = Missing Value Source: NWS Daily Summary

Daily Weather History Graph

Daily Weather History Graph

Search for Another Location

Airport:

Trip Planner

Search our weather history database for the weather conditions in past years. The results will help you decide how hot, cold, wet, or windy it might be!

Date:

Astronomy

Nov. 26, 2012 Rise Set
Actual Time 7:14 AM EST 5:25 PM EST
Civil Twilight 6:47 AM EST 5:52 PM EST
Nautical Twilight 6:17 AM EST 6:22 PM EST
Astronomical Twilight 5:47 AM EST 6:52 PM EST
Moon 4:14 PM EST (11/26) 5:27 AM EST (11/26)
Length of Visible Light 11h 04m
Length of Day
10h 10m
Waxing Gibbous, 97% of the Moon is Illuminated
Nov 26
Waxing Gibbous
Nov 28
Full
Dec 6
Last Quarter
Dec 13
New
Dec 20
First Quarter

Hourly Weather History & Observations

Time (EST) Temp. Dew Point Humidity Pressure Visibility Wind Dir Wind Speed Gust Speed Precip Events Conditions
12:15 AM 44.6 °F 21.2 °F 39% 30.11 in 10.0 mi Calm Calm - N/A   Clear
12:35 AM 44.6 °F 21.2 °F 39% 30.10 in 10.0 mi Calm Calm - N/A   Clear
12:55 AM 44.6 °F 21.2 °F 39% 30.10 in 10.0 mi Calm Calm - N/A   Clear
1:15 AM 44.6 °F 21.2 °F 39% 30.10 in 10.0 mi Calm Calm - N/A   Clear
1:35 AM 42.8 °F 21.2 °F 42% 30.10 in 10.0 mi Calm Calm - N/A   Clear
1:55 AM 42.8 °F 21.2 °F 42% 30.10 in 10.0 mi Calm Calm - N/A   Clear
2:15 AM 42.8 °F 21.2 °F 42% 30.10 in 10.0 mi Calm Calm - N/A   Clear
2:35 AM 42.8 °F 23.0 °F 46% 30.10 in 10.0 mi Calm Calm - N/A   Clear
2:55 AM 35.6 °F 28.4 °F 75% 30.10 in 10.0 mi Calm Calm - N/A   Clear
3:15 AM 37.4 °F 23.0 °F 56% 30.11 in 10.0 mi Calm Calm - N/A   Clear
3:35 AM 37.4 °F 23.0 °F 56% 30.11 in 10.0 mi Calm Calm - N/A   Clear
3:55 AM 39.2 °F 23.0 °F 52% 30.11 in 10.0 mi Calm Calm - N/A   Clear
4:15 AM 37.4 °F 23.0 °F 56% 30.11 in 10.0 mi Calm Calm - N/A   Clear
4:35 AM 41.0 °F 23.0 °F 49% 30.11 in 10.0 mi Calm Calm - N/A   Clear
4:55 AM 41.0 °F 23.0 °F 49% 30.12 in 10.0 mi Calm Calm - N/A   Clear
5:15 AM 37.4 °F 26.6 °F 65% 30.12 in 10.0 mi Calm Calm - N/A   Clear
5:35 AM 37.4 °F 24.8 °F 60% 30.13 in 10.0 mi Calm Calm - N/A   Clear
5:55 AM 39.2 °F 23.0 °F 52% 30.14 in 10.0 mi Calm Calm - N/A   Clear
6:15 AM 35.6 °F 26.6 °F 70% 30.15 in 10.0 mi Calm Calm - N/A   Clear
6:35 AM 33.8 °F 26.6 °F 75% 30.15 in 10.0 mi Calm Calm - N/A   Clear
6:55 AM 32.0 °F 28.4 °F 87% 30.16 in 10.0 mi Calm Calm - N/A   Clear
7:15 AM 33.8 °F 26.6 °F 75% 30.17 in 10.0 mi Calm Calm - N/A   Clear
7:35 AM 35.6 °F 26.6 °F 70% 30.17 in 10.0 mi Calm Calm - N/A   Clear
7:55 AM 39.2 °F 28.4 °F 65% 30.18 in 10.0 mi Calm Calm - N/A   Clear
8:15 AM 44.6 °F 24.8 °F 46% 30.18 in 10.0 mi Calm Calm - N/A   Clear
8:35 AM 46.4 °F 23.0 °F 40% 30.19 in 10.0 mi Calm Calm - N/A   Clear
8:55 AM 48.2 °F 24.8 °F 40% 30.19 in 10.0 mi Calm Calm - N/A   Clear
9:15 AM 50.0 °F 24.8 °F 37% 30.20 in 10.0 mi Calm Calm - N/A   Clear
9:35 AM 51.8 °F 24.8 °F 35% 30.20 in 10.0 mi Calm Calm - N/A   Clear
9:55 AM 53.6 °F 26.6 °F 35% 30.20 in 10.0 mi West 4.6 mph - N/A   Clear
10:15 AM 53.6 °F 26.6 °F 35% 30.20 in 10.0 mi West 6.9 mph - N/A   Clear
10:35 AM 57.2 °F 26.6 °F 31% 30.20 in 10.0 mi West 4.6 mph - N/A   Clear
10:55 AM 59.0 °F 28.4 °F 31% 30.19 in 10.0 mi West 5.8 mph - N/A   Clear
11:15 AM 60.8 °F 28.4 °F 29% 30.19 in 10.0 mi West 3.5 mph - N/A   Clear
11:35 AM 62.6 °F 26.6 °F 26% 30.18 in 10.0 mi West 3.5 mph - N/A   Clear
11:55 AM 62.6 °F 26.6 °F 26% 30.18 in 10.0 mi Calm Calm - N/A   Clear
12:15 PM 62.6 °F 23.0 °F 22% 30.16 in 10.0 mi West 4.6 mph - N/A   Clear
12:35 PM 64.4 °F 23.0 °F 21% 30.16 in 10.0 mi SW 4.6 mph - N/A   Clear
12:55 PM 64.4 °F 21.2 °F 19% 30.15 in 10.0 mi SW 4.6 mph - N/A   Clear
1:15 PM 66.2 °F 23.0 °F 19% 30.14 in 10.0 mi SSW 5.8 mph - N/A   Clear
1:35 PM 68.0 °F 19.4 °F 16% 30.14 in 10.0 mi WSW 5.8 mph - N/A   Clear
1:55 PM 68.0 °F 21.2 °F 17% 30.13 in 10.0 mi SSW 3.5 mph - N/A   Clear
2:15 PM 68.0 °F 23.0 °F 18% 30.13 in 10.0 mi Calm Calm - N/A   Clear
2:35 PM 68.0 °F 19.4 °F 16% 30.13 in 10.0 mi SSW 5.8 mph - N/A   Clear
2:55 PM 68.0 °F 21.2 °F 17% 30.12 in 10.0 mi SSW 3.5 mph - N/A   Clear
3:15 PM 69.8 °F 23.0 °F 17% 30.12 in 10.0 mi Calm Calm - N/A   Clear
3:35 PM 68.0 °F 21.2 °F 17% 30.11 in 10.0 mi South 4.6 mph - N/A   Clear
3:55 PM 68.0 °F 23.0 °F 18% 30.11 in 10.0 mi SSE 4.6 mph - N/A   Clear
4:15 PM 68.0 °F 21.2 °F 17% 30.11 in 10.0 mi South 4.6 mph - N/A   Clear
4:35 PM 66.2 °F 23.0 °F 19% 30.11 in 10.0 mi SSE 4.6 mph - N/A   Clear
4:55 PM 64.4 °F 24.8 °F 22% 30.12 in 10.0 mi Calm Calm - N/A   Clear
5:15 PM 62.6 °F 26.6 °F 26% 30.12 in 10.0 mi Calm Calm - N/A   Clear
5:35 PM 60.8 °F 26.6 °F 27% 30.13 in 10.0 mi Calm Calm - N/A   Clear
5:55 PM 59.0 °F 26.6 °F 29% 30.13 in 10.0 mi Calm Calm - N/A   Clear
6:15 PM 59.0 °F 26.6 °F 29% 30.12 in 10.0 mi Calm Calm - N/A   Clear
6:35 PM 57.2 °F 26.6 °F 31% 30.13 in 10.0 mi Calm Calm - N/A   Clear
6:55 PM 57.2 °F 26.6 °F 31% 30.13 in 10.0 mi Calm Calm - N/A   Clear
7:15 PM 55.4 °F 26.6 °F 33% 30.13 in 10.0 mi Calm Calm - N/A   Clear
7:35 PM 53.6 °F 26.6 °F 35% 30.13 in 10.0 mi Calm Calm - N/A   Clear
7:55 PM 53.6 °F 26.6 °F 35% 30.13 in 10.0 mi Calm Calm - N/A   Clear
8:15 PM 53.6 °F 26.6 °F 35% 30.14 in 10.0 mi Calm Calm - N/A   Clear
8:35 PM 53.6 °F 28.4 °F 38% 30.14 in 10.0 mi Calm Calm - N/A   Clear
8:55 PM 53.6 °F 28.4 °F 38% 30.14 in 10.0 mi Calm Calm - N/A   Scattered Clouds
9:15 PM 53.6 °F 26.6 °F 35% 30.15 in 10.0 mi Calm Calm - N/A   Scattered Clouds
9:35 PM 53.6 °F 26.6 °F 35% 30.15 in 10.0 mi Calm Calm - N/A   Scattered Clouds
9:55 PM 53.6 °F 26.6 °F 35% 30.15 in 10.0 mi Calm Calm - N/A   Scattered Clouds
10:15 PM 51.8 °F 26.6 °F 38% 30.15 in 10.0 mi Calm Calm - N/A   Clear
10:35 PM 51.8 °F 26.6 °F 38% 30.15 in 10.0 mi Calm Calm - N/A   Clear
10:55 PM 51.8 °F 26.6 °F 38% 30.15 in 10.0 mi Calm Calm - N/A   Clear
11:15 PM 50.0 °F 26.6 °F 40% 30.14 in 10.0 mi Calm Calm - N/A   Scattered Clouds
11:35 PM 50.0 °F 26.6 °F 40% 30.15 in 10.0 mi Calm Calm - N/A   Mostly Cloudy
11:55 PM 50.0 °F 28.4 °F 43% 30.15 in 10.0 mi Calm Calm - N/A   Overcast